QPF
0.02 0.01 0.01 0.01 0.02 0.01 0.01 0.01 0.01 0.01 0.01 0.02 0.02 0.03 0.03 0.03 0.03 0.02 0.01 0.01 0.02 0.02 0.02 0.03 0.03 0.03 0.02 0.01 0.01 0.01 0.02 0.03 0.05 0.06 0.07 0.08 0.07 0.07
0.02 0.01 0.01 0.02 0.02 0.03 0.02 0.01 0.01 0.01 0.01 0.01 0.01 0.02 0.03 0.04 0.04 0.03 0.03 0.02 0.03 0.04 0.03 0.03 0.03 0.02 0.02 0.01 0.01 0.01 0.02 0.02 0.04 0.06 0.06 0.08 0.09 0.09
0.02 0.02 0.02 0.02 0.02 0.03 0.04 0.02 0.01 0.01 0.01 0.01 0.01 0.02 0.03 0.04 0.04 0.04 0.04 0.02 0.03 0.04 0.04 0.03 0.03 0.02 0.01 0.01 0.01 0.01 0.02 0.02 0.02 0.03 0.04 0.06 0.07 0.07
0.01 0.01 0.02 0.02 0.02 0.02 0.03 0.04 0.02 0.01 0.01 0.01 0.02 0.02 0.03 0.03 0.04 0.04 0.04 0.03 0.03 0.04 0.04 0.03 0.02 0.02 0.01 0.01 0.01 0.01 0.03 0.03 0.03 0.04 0.04 0.04 0.06 0.07
0.02 0.01 0.02 0.02 0.02 0.02 0.02 0.03 0.03 0.01 0.01 0.01 0.01 0.02 0.03 0.03 0.03 0.04 0.04 0.03 0.04 0.04 0.04 0.03 0.02 0.02 0.01 0.01 0.01 0.01 0.02 0.04 0.03 0.04 0.05 0.05 0.05 0.06
0.03 0.02 0.02 0.02 0.02 0.02 0.02 0.02 0.03 0.02 0.01 0.01 0.02 0.02 0.02 0.02 0.02 0.03 0.04 0.04 0.04 0.05 0.04 0.03 0.02 0.02 0.01 0.01 0.01 0.01 0.01 0.02 0.04 0.04 0.05 0.06 0.06 0.06
0.05 0.04 0.03 0.03 0.03 0.04 0.04 0.03 0.03 0.03 0.02 0.02 0.02 0.02 0.02 0.02 0.02 0.02 0.03 0.03 0.04 0.04 0.03 0.03 0.02 0.01 0.01 0.01 0.01 0.01 0.01 0.02 0.03 0.04 0.04 0.05 0.07 0.07
0.07 0.06 0.06 0.06 0.04 0.04 0.04 0.04 0.04 0.04 0.03 0.03 0.03 0.02 0.02 0.01 0.02 0.02 0.02 0.02 0.03 0.03 0.03 0.04 0.03 0.02 0.01 0.01 0.01 0.01 0.02 0.02 0.02 0.03 0.03 0.03 0.04 0.05
0.06 0.05 0.06 0.06 0.06 0.05 0.04 0.05 0.05 0.04 0.04 0.04 0.04 0.02 0.02 0.01 0.01 0.01 0.01 0.02 0.02 0.03 0.03 0.03 0.03 0.02 0.02 0.02 0.02 0.02 0.03 0.02 0.02 0.02 0.02 0.02 0.03 0.03
0.06 0.06 0.06 0.06 0.05 0.05 0.05 0.05 0.04 0.04 0.04 0.03 0.03 0.02 0.02 0.01 0.01 0.02 0.02 0.02 0.02 0.04 0.05 0.04 0.02 0.02 0.02 0.02 0.02 0.03 0.04 0.03 0.03 0.02 0.02 0.02 0.02 0.03
0.05 0.05 0.06 0.05 0.05 0.05 0.06 0.06 0.05 0.04 0.04 0.04 0.03 0.03 0.03 0.02 0.02 0.03 0.03 0.03 0.03 0.04 0.04 0.03 0.02 0.02 0.02 0.03 0.03 0.03 0.03 0.03 0.03 0.02 0.02 0.03 0.03 0.03
0.06 0.06 0.06 0.05 0.05 0.05 0.05 0.05 0.05 0.05 0.04 0.04 0.03 0.03 0.03 0.03 0.03 0.03 0.03 0.03 0.03 0.03 0.02 0.01 0.01 0.01 0.02 0.02 0.02 0.02 0.03 0.03 0.03 0.02 0.02 0.02 0.02 0.02
0.05 0.06 0.06 0.06 0.06 0.06 0.05 0.04 0.04 0.04 0.04 0.04 0.03 0.03 0.03 0.03 0.03 0.03 0.03 0.03 0.03 0.03 0.02 0.02 0.02 0.01 0.01 0.01 0.01 0.01 0.01 0.02 0.02 0.02 0.02 0.02 0.02 0.02
0.04 0.04 0.05 0.07 0.07 0.07 0.06 0.05 0.04 0.04 0.04 0.04 0.03 0.03 0.03 0.03 0.03 0.03 0.02 0.02 0.03 0.03 0.03 0.03 0.03 0.02 0.02 0.02 0.01 0.01 0.02 0.02 0.02 0.03 0.02 0.02 0.01 0.01
0.04 0.04 0.04 0.06 0.07 0.08 0.07 0.05 0.05 0.04 0.03 0.03 0.03 0.03 0.02 0.02 0.02 0.02 0.02 0.03 0.03 0.04 0.04 0.04 0.03 0.03 0.03 0.03 0.02 0.02 0.02 0.03 0.02 0.02 0.02 0.02 0.01 0.01
0.04 0.04 0.05 0.05 0.06 0.06 0.07 0.07 0.05 0.04 0.03 0.02 0.02 0.02 0.02 0.02 0.02 0.02 0.03 0.03 0.03 0.03 0.03 0.03 0.04 0.04 0.04 0.03 0.03 0.03 0.02 0.02 0.02 0.01 0.01 0.01 0.01 0.01
0.03 0.04 0.05 0.05 0.05 0.05 0.06 0.07 0.05 0.04 0.03 0.02 0.01 0.01 0.01 0.01 0.02 0.02 0.02 0.02 0.02 0.02 0.02 0.02 0.03 0.03 0.03 0.03 0.03 0.03 0.03 0.02 0.02 0.02 0.02 0.02 0.02 0.02
0.03 0.04 0.04 0.03 0.03 0.03 0.03 0.04 0.04 0.04 0.03 0.02 0.01 0.01 0.01 0.01 0.02 0.02 0.02 0.02 0.02 0.02 0.02 0.02 0.02 0.02 0.02 0.02 0.02 0.02 0.03 0.03 0.03 0.03 0.02 0.02 0.02 0.02
0.04 0.03 0.03 0.02 0.02 0.02 0.02 0.02 0.02 0.02 0.03 0.03 0.02 0.02 0.02 0.02 0.02 0.02 0.02 0.02 0.02 0.02 0.02 0.02 0.02 0.02 0.02 0.02 0.01 0.02 0.03 0.03 0.04 0.03 0.03 0.02 0.02 0.02
0.04 0.02 0.02 0.02 0.02 0.02 0.02 0.02 0.02 0.02 0.03 0.03 0.03 0.02 0.02 0.02 0.02 0.02 0.02 0.02 0.02 0.01 0.01 0.01 0.01 0.02 0.02 0.02 0.02 0.02 0.02 0.03 0.04 0.04 0.04 0.03 0.03 0.03
0.03 0.02 0.02 0.02 0.02 0.02 0.02 0.02 0.02 0.02 0.02 0.03 0.03 0.03 0.03 0.02 0.02 0.02 0.02 0.02 0.01 0.01 0.01 0.01 0.01 0.01 0.02 0.02 0.02 0.02 0.02 0.03 0.04 0.04 0.04 0.04 0.04 0.04
0.03 0.03 0.02 0.02 0.02 0.02 0.02 0.02 0.02 0.02 0.02 0.02 0.02 0.03 0.03 0.03 0.03 0.02 0.02 0.02 0.02 0.01 0.01 0.01 0.01 0.01 0.01 0.02 0.02 0.01 0.02 0.02 0.02 0.03 0.04 0.04 0.05 0.04
0.03 0.03 0.03 0.02 0.02 0.01 0.02 0.02 0.02 0.02 0.02 0.02 0.02 0.03 0.03 0.03 0.03 0.03 0.03 0.03 0.02 0.02 0.01 0.01 0.01 0.01 0.01 0.01 0.01 0.01 0.02 0.02 0.02 0.02 0.03 0.03 0.03 0.03
MSLP
1028.43 1028.35 1028.24 1028.09 1027.90 1027.67 1027.41 1027.14 1026.87 1026.62 1026.38 1026.16 1025.96 1025.78 1025.59 1025.39 1025.18 1024.93 1024.64 1024.31 1023.93 1023.52 1023.09 1022.64 1022.19 1021.76 1021.36 1020.99 1020.65 1020.34 1020.06 1019.78 1019.50 1019.22 1018.93 1018.62 1018.31 1018.00
1028.26 1028.17 1028.05 1027.89 1027.69 1027.45 1027.19 1026.91 1026.65 1026.40 1026.17 1025.96 1025.77 1025.59 1025.40 1025.19 1024.96 1024.70 1024.39 1024.04 1023.65 1023.23 1022.80 1022.35 1021.91 1021.48 1021.07 1020.70 1020.36 1020.05 1019.76 1019.48 1019.21 1018.94 1018.66 1018.37 1018.07 1017.77
1027.94 1027.82 1027.67 1027.49 1027.28 1027.03 1026.76 1026.49 1026.24 1026.00 1025.79 1025.60 1025.42 1025.24 1025.06 1024.85 1024.61 1024.33 1024.02 1023.66 1023.27 1022.85 1022.42 1021.98 1021.54 1021.11 1020.70 1020.33 1019.98 1019.66 1019.37 1019.10 1018.84 1018.58 1018.32 1018.06 1017.78 1017.49
1027.49 1027.34 1027.16 1026.96 1026.73 1026.47 1026.21 1025.94 1025.70 1025.48 1025.28 1025.10 1024.93 1024.76 1024.57 1024.36 1024.12 1023.85 1023.53 1023.18 1022.80 1022.40 1021.98 1021.55 1021.12 1020.70 1020.29 1019.91 1019.55 1019.23 1018.93 1018.66 1018.42 1018.18 1017.94 1017.69 1017.44 1017.17
1026.98 1026.79 1026.60 1026.38 1026.13 1025.87 1025.61 1025.35 1025.11 1024.89 1024.70 1024.52 1024.35 1024.18 1023.99 1023.77 1023.53 1023.26 1022.96 1022.63 1022.27 1021.90 1021.50 1021.10 1020.69 1020.28 1019.87 1019.49 1019.12 1018.79 1018.48 1018.21 1017.96 1017.74 1017.51 1017.29 1017.05 1016.80
1026.46 1026.26 1026.05 1025.82 1025.58 1025.31 1025.05 1024.79 1024.55 1024.32 1024.12 1023.93 1023.74 1023.55 1023.35 1023.13 1022.89 1022.63 1022.34 1022.04 1021.71 1021.37 1021.02 1020.64 1020.26 1019.86 1019.47 1019.08 1018.71 1018.36 1018.04 1017.76 1017.51 1017.28 1017.06 1016.84 1016.61 1016.36
1026.02 1025.81 1025.60 1025.37 1025.12 1024.86 1024.59 1024.33 1024.08 1023.84 1023.61 1023.39 1023.18 1022.96 1022.74 1022.50 1022.25 1021.99 1021.73 1021.45 1021.16 1020.86 1020.54 1020.21 1019.85 1019.47 1019.08 1018.69 1018.31 1017.95 1017.61 1017.31 1017.04 1016.80 1016.57 1016.34 1016.10 1015.85
1025.70 1025.49 1025.28 1025.06 1024.81 1024.55 1024.28 1024.01 1023.74 1023.48 1023.22 1022.96 1022.71 1022.46 1022.20 1021.94 1021.68 1021.42 1021.17 1020.91 1020.66 1020.39 1020.10 1019.80 1019.46 1019.10 1018.72 1018.33 1017.94 1017.55 1017.19 1016.87 1016.57 1016.29 1016.04 1015.78 1015.52 1015.23
1025.53 1025.32 1025.11 1024.89 1024.64 1024.38 1024.11 1023.82 1023.54 1023.25 1022.96 1022.67 1022.38 1022.08 1021.79 1021.50 1021.22 1020.96 1020.70 1020.46 1020.22 1019.97 1019.71 1019.42 1019.10 1018.75 1018.37 1017.98 1017.57 1017.16 1016.78 1016.41 1016.07 1015.75 1015.45 1015.15 1014.84 1014.51
1025.52 1025.30 1025.08 1024.85 1024.60 1024.34 1024.06 1023.76 1023.46 1023.15 1022.84 1022.51 1022.19 1021.86 1021.54 1021.22 1020.92 1020.63 1020.37 1020.11 1019.87 1019.63 1019.37 1019.09 1018.77 1018.42 1018.04 1017.62 1017.20 1016.77 1016.34 1015.94 1015.55 1015.18 1014.82 1014.45 1014.09 1013.70
1025.64 1025.40 1025.16 1024.91 1024.65 1024.38 1024.09 1023.79 1023.48 1023.16 1022.83 1022.49 1022.14 1021.79 1021.43 1021.09 1020.76 1020.46 1020.17 1019.89 1019.63 1019.37 1019.10 1018.80 1018.47 1018.11 1017.71 1017.28 1016.83 1016.37 1015.91 1015.45 1015.01 1014.57 1014.14 1013.71 1013.27 1012.83
1025.85 1025.57 1025.30 1025.02 1024.74 1024.46 1024.17 1023.87 1023.56 1023.24 1022.91 1022.57 1022.21 1021.84 1021.47 1021.11 1020.76 1020.42 1020.10 1019.79 1019.50 1019.20 1018.90 1018.57 1018.22 1017.83 1017.41 1016.96 1016.48 1015.98 1015.47 1014.97 1014.46 1013.95 1013.45 1012.94 1012.44 1011.93
1026.09 1025.77 1025.46 1025.15 1024.86 1024.56 1024.27 1023.98 1023.68 1023.37 1023.05 1022.72 1022.37 1022.00 1021.62 1021.25 1020.87 1020.50 1020.15 1019.80 1019.46 1019.12 1018.78 1018.41 1018.02 1017.60 1017.15 1016.66 1016.15 1015.61 1015.06 1014.49 1013.92 1013.34 1012.77 1012.19 1011.62 1011.05
1026.32 1025.95 1025.61 1025.28 1024.96 1024.66 1024.38 1024.10 1023.82 1023.53 1023.23 1022.92 1022.58 1022.22 1021.85 1021.46 1021.07 1020.67 1020.28 1019.90 1019.51 1019.12 1018.73 1018.31 1017.88 1017.42 1016.93 1016.41 1015.86 1015.28 1014.67 1014.05 1013.41 1012.76 1012.11 1011.47 1010.83 1010.21
1026.49 1026.09 1025.72 1025.38 1025.06 1024.76 1024.48 1024.22 1023.96 1023.70 1023.42 1023.13 1022.81 1022.47 1022.10 1021.71 1021.31 1020.90 1020.47 1020.05 1019.62 1019.18 1018.74 1018.28 1017.80 1017.30 1016.77 1016.20 1015.60 1014.97 1014.31 1013.62 1012.92 1012.21 1011.49 1010.78 1010.09 1009.43
1026.57 1026.16 1025.78 1025.44 1025.13 1024.84 1024.58 1024.34 1024.10 1023.86 1023.61 1023.34 1023.04 1022.71 1022.35 1021.97 1021.56 1021.13 1020.69 1020.23 1019.77 1019.29 1018.80 1018.30 1017.77 1017.22 1016.64 1016.02 1015.37 1014.68 1013.96 1013.21 1012.44 1011.67 1010.89 1010.13 1009.39 1008.69
1026.54 1026.15 1025.79 1025.46 1025.17 1024.91 1024.67 1024.45 1024.23 1024.01 1023.77 1023.51 1023.23 1022.91 1022.57 1022.19 1021.78 1021.35 1020.90 1020.42 1019.93 1019.42 1018.89 1018.34 1017.77 1017.16 1016.53 1015.85 1015.14 1014.39 1013.60 1012.79 1011.96 1011.12 1010.29 1009.48 1008.71 1007.97
1026.43 1026.06 1025.74 1025.44 1025.18 1024.94 1024.73 1024.52 1024.31 1024.10 1023.87 1023.62 1023.35 1023.05 1022.71 1022.35 1021.95 1021.53 1021.07 1020.59 1020.08 1019.54 1018.98 1018.39 1017.76 1017.10 1016.40 1015.67 1014.89 1014.07 1013.22 1012.34 1011.45 1010.56 1009.68 1008.84 1008.03 1007.27
1026.24 1025.92 1025.64 1025.38 1025.15 1024.94 1024.74 1024.54 1024.33 1024.12 1023.89 1023.65 1023.38 1023.09 1022.77 1022.42 1022.05 1021.64 1021.19 1020.71 1020.19 1019.64 1019.04 1018.41 1017.74 1017.02 1016.26 1015.45 1014.60 1013.72 1012.80 1011.86 1010.92 1009.98 1009.07 1008.19 1007.36 1006.58
1026.01 1025.74 1025.50 1025.28 1025.08 1024.88 1024.68 1024.48 1024.27 1024.05 1023.82 1023.57 1023.31 1023.03 1022.73 1022.41 1022.05 1021.66 1021.24 1020.77 1020.25 1019.68 1019.06 1018.39 1017.67 1016.90 1016.07 1015.20 1014.29 1013.34 1012.37 1011.39 1010.40 1009.43 1008.49 1007.59 1006.74 1005.93
1025.77 1025.54 1025.33 1025.14 1024.95 1024.75 1024.55 1024.34 1024.11 1023.88 1023.63 1023.38 1023.13 1022.86 1022.58 1022.28 1021.96 1021.60 1021.20 1020.75 1020.24 1019.67 1019.03 1018.33 1017.57 1016.75 1015.87 1014.95 1013.99 1012.99 1011.98 1010.97 1009.96 1008.97 1008.01 1007.10 1006.23 1005.40
1025.52 1025.32 1025.13 1024.95 1024.76 1024.55 1024.33 1024.10 1023.85 1023.59 1023.33 1023.07 1022.81 1022.56 1022.30 1022.03 1021.74 1021.42 1021.05 1020.63 1020.14 1019.57 1018.93 1018.22 1017.44 1016.59 1015.68 1014.73 1013.74 1012.72 1011.70 1010.67 1009.65 1008.66 1007.70 1006.79 1005.91 1005.06
1025.27 1025.07 1024.89 1024.70 1024.49 1024.26 1024.02 1023.74 1023.46 1023.18 1022.89 1022.62 1022.36 1022.12 1021.88 1021.64 1021.39 1021.11 1020.78 1020.39 1019.93 1019.39 1018.77 1018.06 1017.28 1016.44 1015.53 1014.58 1013.59 1012.59 1011.58 1010.57 1009.57 1008.59 1007.65 1006.73 1005.85 1004.98
Thickness
5438 5437 5437 5436 5436 5436 5436 5437 5439 5442 5443 5442 5440 5439 5439 5440 5440 5441 5443 5445 5447 5449 5451 5452 5454 5456 5457 5459 5460 5462 5464 5466 5468 5470 5472 5475 5477 5479
5426 5425 5425 5424 5423 5422 5422 5423 5425 5427 5429 5430 5427 5426 5425 5426 5426 5427 5429 5431 5433 5435 5437 5438 5440 5441 5442 5444 5445 5447 5449 5451 5453 5455 5457 5459 5462 5464
5415 5414 5413 5412 5411 5410 5409 5409 5410 5412 5413 5414 5412 5413 5412 5413 5413 5414 5415 5417 5419 5421 5422 5423 5424 5426 5427 5428 5430 5432 5434 5436 5438 5440 5442 5444 5446 5449
5405 5403 5402 5401 5400 5399 5398 5398 5398 5399 5399 5400 5400 5399 5400 5400 5400 5401 5402 5403 5405 5406 5407 5408 5410 5411 5412 5413 5415 5417 5419 5421 5423 5425 5427 5430 5432 5433
5395 5394 5393 5391 5390 5389 5388 5387 5387 5386 5387 5386 5388 5387 5387 5386 5387 5387 5388 5389 5390 5392 5393 5394 5395 5396 5397 5399 5400 5402 5404 5406 5409 5410 5411 5412 5415 5417
5384 5384 5383 5382 5381 5380 5378 5377 5375 5374 5374 5374 5375 5375 5374 5374 5374 5375 5375 5375 5377 5378 5378 5379 5380 5380 5382 5384 5387 5387 5389 5389 5391 5393 5395 5397 5398 5400
5373 5372 5372 5371 5370 5369 5368 5367 5365 5363 5363 5363 5364 5363 5363 5362 5363 5363 5363 5363 5363 5363 5363 5364 5366 5367 5368 5369 5370 5371 5373 5374 5375 5377 5379 5381 5383 5384
5363 5362 5361 5360 5358 5357 5357 5357 5356 5354 5353 5352 5353 5353 5353 5353 5351 5351 5350 5351 5352 5351 5349 5350 5350 5352 5353 5355 5356 5356 5357 5358 5360 5361 5363 5365 5367 5368
5352 5351 5351 5350 5348 5347 5346 5345 5345 5344 5344 5344 5344 5344 5343 5343 5341 5339 5338 5338 5339 5338 5335 5338 5337 5338 5339 5339 5340 5341 5342 5343 5344 5345 5347 5349 5350 5352
5340 5340 5340 5339 5338 5336 5335 5334 5335 5335 5334 5333 5334 5333 5332 5330 5329 5328 5327 5325 5324 5323 5322 5324 5324 5325 5325 5326 5326 5327 5327 5328 5329 5331 5332 5333 5335 5336
5329 5329 5330 5329 5328 5327 5326 5325 5325 5325 5323 5323 5322 5321 5319 5319 5318 5316 5315 5314 5315 5314 5311 5311 5313 5313 5314 5314 5313 5313 5313 5314 5315 5316 5317 5319 5320 5321
5318 5318 5319 5319 5319 5317 5317 5316 5316 5316 5314 5312 5311 5310 5308 5308 5307 5306 5306 5304 5304 5304 5302 5299 5300 5299 5301 5303 5300 5300 5301 5301 5302 5303 5304 5305 5306 5307
5306 5307 5308 5307 5307 5307 5307 5307 5307 5305 5303 5302 5300 5299 5298 5297 5296 5295 5294 5293 5293 5293 5291 5288 5288 5286 5286 5289 5290 5288 5288 5289 5290 5291 5292 5292 5293 5293
5294 5295 5296 5295 5296 5295 5295 5295 5293 5292 5291 5291 5289 5289 5288 5287 5286 5284 5283 5281 5281 5280 5279 5276 5276 5275 5275 5276 5277 5278 5277 5277 5278 5280 5280 5281 5281 5281
5282 5283 5283 5283 5283 5283 5283 5282 5281 5280 5280 5280 5279 5278 5277 5276 5274 5272 5271 5270 5269 5268 5267 5265 5265 5264 5264 5265 5266 5266 5267 5268 5268 5269 5270 5270 5271 5272
5270 5270 5270 5270 5270 5270 5270 5270 5269 5269 5268 5268 5267 5266 5264 5264 5263 5261 5260 5259 5258 5258 5256 5255 5254 5253 5254 5254 5254 5256 5256 5258 5259 5258 5259 5261 5261 5262
5258 5258 5258 5258 5258 5259 5258 5258 5257 5257 5256 5256 5255 5254 5253 5252 5251 5250 5249 5248 5248 5248 5247 5245 5243 5243 5243 5244 5246 5248 5248 5248 5249 5249 5250 5253 5254 5254
5247 5247 5248 5248 5248 5248 5248 5247 5247 5246 5245 5244 5244 5243 5242 5242 5241 5240 5239 5239 5239 5239 5238 5236 5235 5235 5236 5237 5237 5238 5239 5239 5240 5240 5241 5244 5247 5247
5237 5237 5237 5238 5237 5237 5237 5237 5237 5236 5235 5234 5234 5233 5232 5231 5231 5231 5230 5230 5230 5229 5228 5227 5226 5226 5228 5231 5233 5229 5229 5230 5231 5232 5233 5235 5238 5240
5228 5228 5228 5228 5227 5227 5227 5227 5226 5226 5225 5224 5224 5223 5222 5222 5222 5222 5222 5222 5221 5220 5219 5218 5218 5218 5218 5221 5222 5222 5219 5219 5221 5223 5225 5226 5229 5230
5217 5218 5218 5218 5218 5218 5217 5217 5217 5216 5216 5215 5215 5214 5214 5213 5213 5214 5213 5213 5212 5212 5212 5212 5211 5209 5208 5208 5210 5214 5214 5212 5211 5212 5214 5216 5219 5223
5207 5207 5208 5208 5208 5208 5208 5208 5208 5208 5207 5207 5207 5206 5206 5205 5206 5206 5206 5205 5205 5204 5204 5203 5201 5200 5201 5202 5204 5206 5206 5206 5205 5205 5205 5206 5207 5212
5196 5197 5198 5198 5199 5199 5199 5199 5199 5200 5199 5199 5199 5198 5197 5197 5198 5198 5198 5197 5196 5196 5195 5194 5193 5194 5194 5195 5195 5196 5197 5197 5198 5200 5201 5200 5200 5202